SNUSat 2
1 43782U 18099AA  24202.42513806  .00009759  00000-0  68039-3 0  9999
2 43782  97.5128 258.5409 0014815 182.7624 177.3524 15.05517474307570
SnugLite
1 43784U 18099AC  24202.88123365  .00012981  00000-0  87514-3 0  9998
2 43784  97.4938 258.3076 0004812 173.4304 186.6987 15.06772633307719
ITASat 1
1 43786U 18099AE  24202.71303914  .00010687  00000-0  75909-3 0  9998
2 43786  97.5077 259.0370 0016395 235.3501 124.6181 15.04776742307617
EAGLET 1
1 43790U 18099AJ  24202.39376705  .00006405  00000-0  47682-3 0  9995
2 43790  97.5248 259.2174 0013062 212.8467 147.1948 15.03208659307263
ESEO
1 43792U 18099AL  24202.56498976  .00004759  00000-0  38822-3 0  9997
2 43792  97.5148 256.0288 0010665 196.1399 163.9486 14.99863756307205
CSIM
1 43793U 18099AM  24202.73526783  .00030594  00000-0  15390-2 0  9995
2 43793  97.5281 267.1885 0012731 190.5282 169.5686 15.17100141307864
JO-97
1 43803U 18099AX  24202.61549764  .00013941  00000-0  90522-3 0  9996
2 43803  97.5190 260.5535 0010179 178.6903 181.4354 15.08114340307732
Suomi 100
1 43804U 18099AY  24202.88373813  .00013404  00000-0  88921-3 0  9990
2 43804  97.5260 260.6064 0016031 180.1981 179.9243 15.07270084307754
ISAT
1 43879U 18111D   24202.52235477  .00016880  00000-0  99995-3 0  9995
2 43879  97.6168 108.0812 0010912 238.5480 121.4684 15.11421586304459
UWE-4
1 43880U 18111E   24202.72917502  .00015064  00000-0  91805-3 0  9990
2 43880  97.6092 108.2209 0014263 250.3532 109.6158 15.10381177302498
Sparrow
1 43881U 18111F   24202.54826872  .00018312  00000-0  10690-2 0  9991
2 43881  97.6259 110.0726 0007775 288.3891  71.6493 15.11958440304528
Prox-1
1 44339U 19036A   24202.84301082  .00016574  00000-0  28089-2 0  9990
2 44339  23.9999   8.7797 0009375  16.9837 343.0971 14.67659379270285
SONATE
1 44400U 19038Q   24202.51595994  .00028859  00000-0  82659-3 0  9995
2 44400  97.7117 198.1366 0014295 356.8285   3.2864 15.35785901279193
Taurus 1
1 44530U 19059C   24202.85090971  .00010567  00000-0  24122-2 0  9991
2 44530  98.5789 323.9253 0010134 311.4583  48.5743 14.55915290256662
Duchifat 3
1 44854U 19089C   24202.69275064  .00022280  00000-0  10847-2 0  9997
2 44854  36.9546 205.4050 0004389 353.9014   6.1679 15.17620717253292
TO-108
1 44881U 19093C   24202.82592100  .00002577  00000-0  31640-3 0  9992
2 44881  97.8277 278.9608 0013710 207.7190 152.3295 14.83873684248031
FloripaSat 1
1 44885U 19093G   24202.78282256  .00010214  00000-0  10435-2 0  9994
2 44885  97.8414 285.1098 0012279 197.7584 162.3206 14.90726512248370
RS-44
1 44909U 19096E   24202.41673872  .00000037  00000-0  11022-3 0  9998
2 44909  82.5200  82.6973 0217133 333.8154  25.2094 12.79731468213224
BY70-2
1 45857U 20042B   24202.85026673  .00355284  00000-0  71306-2 0  9990
2 45857  97.9034 298.9343 0004326 217.9844 142.1098 15.45318468219722
UPMSat 2
1 46276U 20061E   24202.74453298  .00024348  00000-0  71171-3 0  9997
2 46276  97.2958 268.6262 0001627  72.3230 287.8191 15.35276473215324
AmicalSat
1 46287U 20061R   24202.73510114  .00048840  00000-0  12234-2 0  9996
2 46287  97.3473 270.0636 0002969 118.9276 241.2268 15.39911716214720
SALSAT
1 46495U 20068K   24202.46490642  .00008331  00000-0  46566-3 0  9994
2 46495  97.8172 162.6090 0013406 191.4535 168.6392 15.13685364209345
UVSQ-SAT
1 47438U 21006AB  24202.41174664  .00080552  00000-0  13059-2 0  9998
2 47438  97.3238 263.4426 0005698 106.1430 254.0450 15.52476966193880
YUSAT 1
1 47439U 21006AC  24202.74427236  .00864765  33673-3  21134-2 0  9995
2 47439  97.3109 270.1502 0007033 245.5748 114.4795 15.96183361194359
SOMP 2b
1 47445U 21006AJ  24202.61576885  .00067935  00000-0  12635-2 0  9998
2 47445  97.3200 261.7576 0006832 109.5149 250.6840 15.48628058193824
IDEASSat
1 47458U 21006AX  24202.13868093  .00054758  00000-0  11453-2 0  9990
2 47458  97.3311 261.7010 0007296 112.5651 247.6371 15.45267771193677
CubeSX-Sirius-HSE
1 47951U 21022V   24202.86981927  .00031033  00000-0  11583-2 0  9993
2 47951  97.4568 101.1768 0014362  29.4279 330.7766 15.27241796183716
CubeSX-HSE
1 47952U 21022W   24202.82062732  .00030958  00000-0  11515-2 0  9994
2 47952  97.4569 101.2256 0014272  28.9701 331.2328 15.27358903183714
KSU-Cubesat
1 47954U 21022Y   24202.67498563  .00038403  00000-0  12895-2 0  9999
2 47954  97.4579 102.5622 0012839  26.0511 334.1374 15.30676143183506
GRBAlpha
1 47959U 21022AD  24202.84834728  .00030251  00000-0  11221-2 0  9995
2 47959  97.4569 101.4089 0014119  29.2979 330.9048 15.27456628182546
Orbicraft-Zorkiy
1 47960U 21022AE  24202.86218186  .00036746  00000-0  12727-2 0  9990
2 47960  97.4615 102.8275 0013057  27.8548 332.3388 15.29676712183306
STECCO
1 47962U 21022AG  24202.83722546  .00353810  00000-0  23517-2 0  9992
2 47962  97.4510 114.4307 0004578 123.7984 236.3717 15.74422572183396
MO-110
1 47964U 21022AJ  24202.70365923  .01066067  53778-3  25965-2 0  9990
2 47964  97.4477 116.8136 0008967 164.3890 195.7665 15.96267955183520
TUBIN
1 48900U 21059X   24202.85232050  .00022647  00000-0  74730-3 0  9998
2 48900  97.6493 348.5028 0005966 332.6783  27.4143 15.31417355170070
LEDSAT
1 49069U 21073D   24202.77244317  .00025098  00000-0  96834-3 0  9993
2 49069  97.4365 273.7036 0019563 162.5217 197.6698 15.26102931161576
CUTE
1 49263U 21088D   24202.56545293  .00025509  00000-0  11442-2 0  9997
2 49263  97.4958 268.3655 0012155 327.4620  32.5865 15.21123198154711
TeikyoSat 4
1 49396U 21102B   24202.56669106  .00003488  00000-0  25228-3 0  9991
2 49396  97.4573 246.3919 0014139 155.6106 204.5792 15.04585299147777
Z-Sat
1 49399U 21102E   24202.83444917  .00006975  00000-0  44492-3 0  9993
2 49399  97.4288 248.2839 0021500 139.4578 220.8257 15.08812323148063
KOSEN 1
1 49402U 21102H   24202.87200046  .00011118  00000-0  64712-3 0  9997
2 49402  97.4218 249.8834 0020187 123.5301 236.7862 15.12027264148235
HO-113
1 50466U 21131B   24202.83290908  .00001499  00000-0  49254-3 0  9998
2 50466  98.5284 287.7467 0004713  40.7749 319.3791 14.39735677134841
Tevel-3
1 50988U 22002E   24202.76520966  .00622449  15101-3  21863-2 0  9997
2 50988  97.3677 280.7968 0009102 244.1825 115.8509 15.89117699140346
Tevel-8
1 50989U 22002F   24202.56197876  .00594144  13560-3  21745-2 0  9992
2 50989  97.3691 280.6639 0008920 243.7021 116.3335 15.88289077140305
Tevel-1
1 51013U 22002AF  24202.80657145  .00590751  13409-3  21555-2 0  9999
2 51013  97.3660 280.6653 0008807 241.4889 118.5497 15.88352232140348
IRIS-A
1 51044U 22002BN  24202.42425520  .00026302  00000-0  82261-3 0  9999
2 51044  97.3829 268.8456 0004487 266.1053  93.9676 15.33110146139513
Tevel-7
1 51062U 22002CG  24202.85353096  .00656074  16933-3  22700-2 0  9995
2 51062  97.3680 280.9728 0009269 243.1149 116.9177 15.89419950140351
Tevel-4
1 51063U 22002CH  24202.79875032  .00616900  00000-0  22154-2 0  9990
2 51063  97.3687 280.7348 0008756 240.0858 119.9544 15.87243875140336
Tevel-2
1 51069U 22002CP  24202.76150234  .00618591  14915-3  21676-2 0  9992
2 51069  97.3670 280.7617 0009099 243.6222 116.4117 15.89164923140345
OreSat0
1 52017U 22026K   24202.57721976  .00124488  00000-0  15350-2 0  9994
2 52017  97.4904 218.5107 0013349 104.4738 255.8000 15.59668663130909
Planetum 1
1 52738U 22057G   24202.59923738  .00063503  00000-0  13521-2 0  9998
2 52738  97.5687 330.0283 0003942  31.6106 328.5378 15.44722338119728
Foresail-1
1 52766U 22057AL  24202.87763050  .00028505  00000-0  87816-3 0  9991
2 52766  97.5860 329.2193 0008920  17.3849 342.7697 15.33548572119612
SNUGLITE 2
1 52899U 22065F   24202.88993196  .00002972  00000-0  61523-3 0  9991
2 52899  98.1236 343.3918 0008604  54.4677 305.7324 14.60983212109185
IO-117
1 53106U 22080B   24198.22903495 -.00000003  00000-0  00000-0 0  9999
2 53106  70.1332 182.4315 0007583 100.7878 259.3635  6.42557627 47133
SelfieSat
1 53951U 22057BC  24202.64062853  .00179094  00000-0  18604-2 0  9994
2 53951  97.5677 334.7778 0003194 324.5883  35.5162 15.64038537120002
FO-118
1 54684U 22167C   24202.85578812  .00039283  00000-0  12547-2 0  9995
2 54684  97.6080 348.5365 0009339  29.8489 330.3283 15.32321423 89451
SSS-2B
1 56184U 23054G   24202.82576867  .00053440  00000-0  11745-2 0  9993
2 56184  97.3649 101.1584 0008587  69.8793 290.3379 15.43798045 71326
CIRBE
1 56188U 23054L   24202.29967984  .00104189  00000-0  13623-2 0  9996
2 56188  97.3570 103.1672 0006102  82.4167 277.7781 15.58264119 71434
INSPIRE-Sat 7
1 56211U 23054AK  24202.68446339  .00150324  00000-0  17176-2 0  9991
2 56211  97.3578 104.9630 0006233  58.2023 301.9841 15.61662822 71578
RoseyCubesat 1
1 56212U 23054AL  24202.81926099  .00204556  00000-0  17483-2 0  9991
2 56212  97.3580 106.2011 0005982  69.3970 290.7933 15.68829389 71661
SO-120
1 56992U 23084BU  24202.56000209  .00044691  00000-0  15141-2 0  9998
2 56992  97.5341 322.3340 0011418 263.4918  96.5023 15.30368426 61287
MRC-100
1 56993U 23084BV  24202.87288091  .00053654  00000-0  16777-2 0  9995
2 56993  97.5344 323.1694 0010959 261.0587  98.9414 15.32907108 61375
UmKA 1 (RS40S)
1 57172U 23091G   24202.84550092  .00009130  00000-0  59470-3 0  9991
2 57172  97.6094 254.5566 0016548  12.2322 347.9305 15.08045103 58560
